Weather History for Alexandria, LA

Change the Weather History Date:

Tuesday, July 16, 2013

  Actual Average Record
Temperature  
Mean Temperature 82 °F 82 °F  
Max Temperature 91 °F 92 °F 104 °F (1932)
Min Temperature 73 °F 73 °F 58 °F (1967)
Cooling Degree Days 17 17  
Month to date cooling degree days 255 272  
Year to date cooling degree days 1129 1179  
Since 1 June cooling degree days 736 725  
Growing Degree Days 31 (Base 50)    
Moisture  
Dew Point 73 °F    
Average Humidity 78    
Maximum Humidity 100    
Minimum Humidity 55    
Precipitation  
Precipitation 0.26 in 0.11 in 2.68 in (1933)
Month to date precipitation 0.61 2.34  
Year to date precipitation 30.06 31.44  
Sea Level Pressure  
Sea Level Pressure 30.12 in    
Wind  
Wind Speed 7 mph (East)    
Max Wind Speed 24 mph    
Max Gust Speed 30 mph    
Visibility 9 miles    
Events Rain , Thunderstorm    
T = Trace of Precipitation, MM = Missing Value Source: NWS Daily Summary

Daily Weather History Graph

Daily Weather History Graph

Search for Another Location

Airport:

Trip Planner

Search our weather history database for the weather conditions in past years. The results will help you decide how hot, cold, wet, or windy it might be!

Date:

Astronomy

Jul. 16, 2013 Rise Set
Actual Time 6:17 AM CDT 8:15 PM CDT
Civil Twilight 5:49 AM CDT 8:42 PM CDT
Nautical Twilight 5:16 AM CDT 9:15 PM CDT
Astronomical Twilight 4:41 AM CDT 9:50 PM CDT
Moon 2:06 PM CDT 12:35 AM CDT
Length of Visible Light 14h 52m
Length of Day
13h 58m
First Quarter, 56% of the Moon is Illuminated
Jul 16
First Quarter
Jul 22
Full
Jul 29
Last Quarter
Aug 6
New
Aug 14
First Quarter

Hourly Weather History & Observations

Time (CDT) Temp. Heat Index Dew Point Humidity Pressure Visibility Wind Dir Wind Speed Gust Speed Precip Events Conditions
12:53 AM 73.9 °F - 72.0 °F 93% 30.11 in 10.0 mi Calm Calm - N/A   Clear
1:53 AM 73.0 °F - 72.0 °F 96% 30.10 in 9.0 mi Calm Calm - 0.00 in   Clear
2:53 AM 73.9 °F - 73.0 °F 97% 30.09 in 10.0 mi Calm Calm - N/A   Clear
3:53 AM 73.9 °F - 72.0 °F 93% 30.09 in 10.0 mi NE 3.5 mph - N/A   Clear
4:53 AM 73.9 °F - 73.0 °F 97% 30.10 in 10.0 mi ENE 6.9 mph - N/A   Partly Cloudy
5:53 AM 73.9 °F - 73.0 °F 97% 30.11 in 10.0 mi ENE 6.9 mph - N/A   Clear
6:53 AM 73.9 °F - 72.0 °F 93% 30.12 in 9.0 mi NE 3.5 mph - N/A   Partly Cloudy
7:53 AM 75.9 °F - 73.0 °F 91% 30.13 in 10.0 mi Calm Calm - N/A   Clear
8:53 AM 81.0 °F 86.2 °F 73.9 °F 79% 30.14 in 10.0 mi East 6.9 mph - N/A   Clear
9:53 AM 86.0 °F 93.8 °F 73.9 °F 67% 30.14 in 10.0 mi East 8.1 mph - N/A   Clear
10:53 AM 84.9 °F 90.1 °F 71.1 °F 63% 30.14 in 10.0 mi ESE 12.7 mph - N/A   Scattered Clouds
11:53 AM 88.0 °F 93.8 °F 71.1 °F 57% 30.14 in 10.0 mi ESE 13.8 mph - N/A   Clear
12:53 PM 88.0 °F 92.9 °F 70.0 °F 55% 30.13 in 10.0 mi ENE 9.2 mph - N/A   Partly Cloudy
1:53 PM 88.0 °F 95.6 °F 73.0 °F 61% 30.12 in 10.0 mi ENE 5.8 mph - 0.00 in   Mostly Cloudy
2:53 PM 89.1 °F 97.0 °F 73.0 °F 59% 30.10 in 10.0 mi ENE 10.4 mph 16.1 mph N/A   Partly Cloudy
3:26 PM 89.6 °F 98.2 °F 73.4 °F 59% 30.08 in 10.0 mi ENE 11.5 mph 19.6 mph N/A Thunderstorm Scattered Clouds
3:41 PM 86.0 °F 91.8 °F 71.6 °F 62% 30.08 in 10.0 mi ENE 11.5 mph 20.7 mph N/A   Scattered Clouds
3:53 PM 86.0 °F 91.5 °F 71.1 °F 61% 30.08 in 10.0 mi NE 11.5 mph - N/A   Partly Cloudy
4:53 PM 82.9 °F 90.2 °F 75.0 °F 77% 30.08 in 8.0 mi East 15.0 mph - 0.00 in Rain Light Rain
5:53 PM 87.1 °F 94.5 °F 73.0 °F 63% 30.08 in 10.0 mi East 12.7 mph - 0.00 in   Mostly Cloudy
6:53 PM 84.9 °F 90.1 °F 71.1 °F 63% 30.09 in 10.0 mi ESE 12.7 mph - N/A   Clear
7:53 PM 84.0 °F 89.0 °F 71.1 °F 65% 30.11 in 10.0 mi East 5.8 mph - N/A   Clear
8:24 PM 82.4 °F 87.2 °F 71.6 °F 70% 30.11 in 10.0 mi East 8.1 mph - N/A Thunderstorm Partly Cloudy
8:50 PM 75.2 °F - 71.6 °F 89% 30.13 in 2.0 mi East 8.1 mph 23.0 mph 0.23 in Rain , Thunderstorm Heavy Thunderstorms and Rain
8:53 PM 75.0 °F - 72.0 °F 90% 30.14 in 2.5 mi East 6.9 mph - 0.24 in Rain Rain
9:00 PM 75.2 °F - 73.4 °F 94% 30.13 in 7.0 mi East 4.6 mph - 0.01 in Rain Rain
9:53 PM 75.9 °F - 73.9 °F 94% 30.16 in 10.0 mi SE 3.5 mph - 0.02 in   Clear
10:53 PM 77.0 °F - 75.0 °F 94% 30.17 in 10.0 mi ENE 3.5 mph - N/A   Clear
11:53 PM 75.9 °F - 73.9 °F 94% 30.17 in 10.0 mi ENE 4.6 mph - N/A   Clear